When you browse on this site, cookies collect data to enhance your experience and personalize the content and advertising you see.
Visit our Privacy Policy to learn more. By continuing to use the site, you agree to this use of cookies and data.
  • en France
  • Liste des pays
  • À 7 jours
  • Température de l'eau
  • Carte satellitaire
  • Carte météo
  • Widgets météo
  • user-avatar
    Se connecter

    Météo par heure à Melbourne

    Ce jour, 20 Mars, Mercredi

    Heure Température Précipitation Vent Pression Humidité
    00:00 +20°C° 0 mm 2 m/s 760 mmHg 89%
    01:00 +20°C° 0 mm 2 m/s 759 mmHg 91%
    02:00 +20°C° 0 mm 2 m/s 759 mmHg 91%
    03:00 +21°C° 0 mm 1 m/s 759 mmHg 92%
    04:00 +21°C° 0 mm 1 m/s 759 mmHg 92%
    05:00 +21°C° 0.1 mm 1 m/s 759 mmHg 91%
    06:00 +21°C° 0.1 mm 1 m/s 759 mmHg 91%
    07:00 +21°C° 0.1 mm 1 m/s 759 mmHg 90%
    08:00 +22°C° 0 mm 1 m/s 760 mmHg 84%
    09:00 +23°C° 0 mm 1 m/s 760 mmHg 78%
    10:00 +24°C° 0 mm 1 m/s 760 mmHg 72%
    11:00 +26°C° 0 mm 1 m/s 759 mmHg 66%
    12:00 +27°C° 0 mm 2 m/s 759 mmHg 59%
    13:00 +29°C° 0 mm 2 m/s 759 mmHg 53%
    14:00 +29°C° 0 mm 3 m/s 759 mmHg 53%
    15:00 +29°C° 0 mm 3 m/s 758 mmHg 54%
    16:00 +29°C° 0 mm 4 m/s 758 mmHg 54%
    17:00 +28°C° 0 mm 3 m/s 758 mmHg 59%
    18:00 +26°C° 0 mm 3 m/s 759 mmHg 65%
    19:00 +25°C° 0 mm 3 m/s 759 mmHg 70%
    20:00 +24°C° 0 mm 3 m/s 759 mmHg 74%
    21:00 +24°C° 0 mm 3 m/s 759 mmHg 78%
    22:00 +23°C° 0 mm 2 m/s 760 mmHg 81%
    23:00 +21°C° 0 mm 2 m/s 760 mmHg 84%

    Demain, 21 Mars, Jeudi

    Heure Température Précipitation Vent Pression Humidité
    00:00 +21°C° 0 mm 2 m/s 760 mmHg 86%
    01:00 +20°C° 0 mm 2 m/s 760 mmHg 89%
    02:00 +20°C° 0 mm 2 m/s 759 mmHg 90%
    03:00 +20°C° 0 mm 2 m/s 759 mmHg 91%
    04:00 +19°C° 0 mm 2 m/s 759 mmHg 92%
    05:00 +19°C° 0 mm 2 m/s 760 mmHg 91%
    06:00 +19°C° 0 mm 2 m/s 760 mmHg 90%
    07:00 +21°C° 0 mm 1 m/s 760 mmHg 89%
    08:00 +22°C° 0 mm 1 m/s 760 mmHg 84%
    09:00 +23°C° 0 mm 1 m/s 761 mmHg 78%
    10:00 +24°C° 0 mm 1 m/s 761 mmHg 73%
    11:00 +25°C° 0 mm 2 m/s 761 mmHg 66%
    12:00 +27°C° 0 mm 2 m/s 760 mmHg 60%
    13:00 +28°C° 0 mm 2 m/s 760 mmHg 54%
    14:00 +28°C° 0 mm 3 m/s 760 mmHg 54%
    15:00 +28°C° 0 mm 4 m/s 759 mmHg 55%
    16:00 +28°C° 0 mm 4 m/s 759 mmHg 55%
    17:00 +27°C° 0 mm 4 m/s 759 mmHg 60%
    18:00 +26°C° 0 mm 4 m/s 759 mmHg 64%
    19:00 +25°C° 0 mm 3 m/s 760 mmHg 69%
    20:00 +24°C° 0 mm 3 m/s 760 mmHg 72%
    21:00 +22°C° 0 mm 3 m/s 761 mmHg 76%
    22:00 +21°C° 0 mm 3 m/s 761 mmHg 79%
    23:00 +21°C° 0 mm 3 m/s 761 mmHg 82%

    Après-demain, 22 Mars, Vendredi

    Heure Température Précipitation Vent Pression Humidité
    00:00 +20°C° 0 mm 2 m/s 761 mmHg 85%
    01:00 +20°C° 0 mm 2 m/s 760 mmHg 87%
    02:00 +20°C° 0 mm 2 m/s 760 mmHg 88%
    03:00 +20°C° 0 mm 1 m/s 760 mmHg 89%
    04:00 +20°C° 0 mm 1 m/s 760 mmHg 91%
    05:00 +20°C° 0 mm 1 m/s 760 mmHg 91%
    06:00 +20°C° 0 mm 1 m/s 760 mmHg 91%
    07:00 +18°C° 0 mm 0 m/s 760 mmHg 91%
    08:00 +20°C° 0 mm 0 m/s 760 mmHg 80%
    09:00 +23°C° 0 mm 0 m/s 760 mmHg 69%
    10:00 +25°C° 0 mm 0 m/s 760 mmHg 57%
    11:00 +27°C° 0 mm 0 m/s 760 mmHg 51%
    12:00 +31°C° 0 mm 1 m/s 759 mmHg 44%
    13:00 +33°C° 0 mm 1 m/s 758 mmHg 38%
    14:00 +33°C° 0 mm 1 m/s 758 mmHg 38%
    15:00 +34°C° 0 mm 2 m/s 757 mmHg 38%
    16:00 +32°C° 0 mm 2 m/s 757 mmHg 38%
    17:00 +31°C° 0 mm 2 m/s 757 mmHg 41%
    18:00 +30°C° 0 mm 2 m/s 757 mmHg 44%
    19:00 +29°C° 0 mm 2 m/s 757 mmHg 46%
    20:00 +28°C° 0 mm 2 m/s 757 mmHg 51%
    21:00 +27°C° 0 mm 2 m/s 757 mmHg 55%
    22:00 +26°C° 0 mm 2 m/s 757 mmHg 59%
    23:00 +26°C° 0 mm 2 m/s 757 mmHg 58%

    23 Mars, Samedi

    Heure Température Précipitation Vent Pression Humidité
    00:00 +26°C° 0 mm 3 m/s 756 mmHg 58%
    01:00 +25°C° 0 mm 3 m/s 756 mmHg 58%
    02:00 +26°C° 0 mm 4 m/s 755 mmHg 56%
    03:00 +26°C° 0 mm 4 m/s 755 mmHg 55%
    04:00 +26°C° 0 mm 5 m/s 755 mmHg 54%
    05:00 +26°C° 0 mm 6 m/s 754 mmHg 56%
    06:00 +24°C° 0 mm 6 m/s 754 mmHg 58%
    07:00 +24°C° 0 mm 6 m/s 754 mmHg 61%
    08:00 +26°C° 0 mm 7 m/s 753 mmHg 55%
    09:00 +28°C° 0 mm 8 m/s 753 mmHg 50%
    10:00 +29°C° 0 mm 8 m/s 753 mmHg 44%
    11:00 +32°C° 0 mm 8 m/s 752 mmHg 37%
    12:00 +35°C° 0 mm 8 m/s 752 mmHg 30%
    13:00 +38°C° 0 mm 7 m/s 751 mmHg 23%
    14:00 +38°C° 0 mm 7 m/s 751 mmHg 23%
    15:00 +36°C° 0 mm 6 m/s 751 mmHg 23%
    16:00 +36°C° 0 mm 6 m/s 751 mmHg 22%
    17:00 +34°C° 0 mm 5 m/s 751 mmHg 27%
    18:00 +32°C° 0 mm 4 m/s 752 mmHg 33%
    19:00 +29°C° 0 mm 4 m/s 753 mmHg 38%
    20:00 +28°C° 0 mm 3 m/s 753 mmHg 47%
    21:00 +26°C° 0 mm 3 m/s 754 mmHg 55%
    22:00 +24°C° 0 mm 3 m/s 755 mmHg 63%
    23:00 +23°C° 0 mm 2 m/s 755 mmHg 68%

    24 Mars, Dimanche

    Heure Température Précipitation Vent Pression Humidité
    00:00 +21°C° 0 mm 2 m/s 755 mmHg 72%
    01:00 +20°C° 0 mm 2 m/s 755 mmHg 76%
    02:00 +20°C° 0 mm 2 m/s 755 mmHg 77%
    03:00 +19°C° 0 mm 2 m/s 755 mmHg 78%
    04:00 +19°C° 0 mm 2 m/s 755 mmHg 78%
    05:00 +20°C° 0 mm 1 m/s 756 mmHg 79%
    06:00 +19°C° 0 mm 1 m/s 756 mmHg 79%
    07:00 +19°C° 0 mm 1 m/s 756 mmHg 80%
    08:00 +21°C° 0 mm 1 m/s 756 mmHg 70%
    09:00 +23°C° 0 mm 1 m/s 756 mmHg 61%
    10:00 +23°C° 0 mm 0 m/s 755 mmHg 51%
    11:00 +27°C° 0 mm 1 m/s 755 mmHg 43%
    12:00 +29°C° 0 mm 2 m/s 754 mmHg 36%
    13:00 +31°C° 0 mm 3 m/s 754 mmHg 28%
    14:00 +32°C° 0 mm 4 m/s 753 mmHg 30%
    15:00 +32°C° 0 mm 5 m/s 752 mmHg 33%
    16:00 +32°C° 0 mm 7 m/s 751 mmHg 35%
    17:00 +30°C° 0.2 mm 6 m/s 751 mmHg 38%
    18:00 +29°C° 0.2 mm 5 m/s 751 mmHg 40%
    19:00 +28°C° 0.2 mm 5 m/s 751 mmHg 42%
    20:00 +27°C° 0.7 mm 5 m/s 751 mmHg 50%
    21:00 +24°C° 0.7 mm 6 m/s 751 mmHg 58%
    22:00 +23°C° 0.7 mm 6 m/s 752 mmHg 67%
    23:00 +22°C° 0.2 mm 6 m/s 752 mmHg 64%

    25 Mars, Lundi

    Heure Température Précipitation Vent Pression Humidité
    00:00 +21°C° 0.2 mm 6 m/s 751 mmHg 61%
    01:00 +19°C° 0.2 mm 6 m/s 751 mmHg 58%
    02:00 +19°C° 0 mm 6 m/s 752 mmHg 59%
    03:00 +17°C° 0 mm 6 m/s 752 mmHg 60%
    04:00 +17°C° 0 mm 6 m/s 753 mmHg 61%
    05:00 +16°C° 0.1 mm 6 m/s 754 mmHg 57%
    06:00 +16°C° 0.1 mm 6 m/s 755 mmHg 54%
    07:00 +15°C° 0.1 mm 7 m/s 756 mmHg 51%
    08:00 +15°C° 0 mm 6 m/s 756 mmHg 49%
    09:00 +15°C° 0 mm 6 m/s 757 mmHg 48%
    10:00 +15°C° 0 mm 6 m/s 758 mmHg 47%
    11:00 +15°C° 0 mm 6 m/s 758 mmHg 43%
    12:00 +16°C° 0 mm 5 m/s 758 mmHg 40%
    13:00 +17°C° 0 mm 5 m/s 758 mmHg 36%
    14:00 +17°C° 0 mm 5 m/s 758 mmHg 35%
    15:00 +17°C° 0 mm 5 m/s 757 mmHg 34%
    16:00 +17°C° 0 mm 5 m/s 757 mmHg 34%
    17:00 +17°C° 0 mm 5 m/s 758 mmHg 35%
    18:00 +16°C° 0 mm 5 m/s 758 mmHg 36%
    19:00 +15°C° 0 mm 5 m/s 759 mmHg 37%
    20:00 +15°C° 0 mm 5 m/s 759 mmHg 40%
    21:00 +14°C° 0 mm 5 m/s 760 mmHg 42%
    22:00 +13°C° 0 mm 5 m/s 760 mmHg 45%
    23:00 +13°C° 0 mm 6 m/s 760 mmHg 49%
    Voir plus